When you browse on this site, cookies collect data to enhance your experience and personalize the content and advertising you see.
Visit our Privacy Policy to learn more. By continuing to use the site, you agree to this use of cookies and data.
  • In Hungary
  • List of Countries
  • For 7 days
  • Water Temperature
  • Satellite Maps
  • Weather Map
  • News
  • Weather Widgets
  • user-avatar
    Login

    Hourly Weather Santa Cruz

    Today, 19 November, Monday

    Time Temperature Precipitation Wind Pressure Humidity
    00:00 +20°C° 1.2 mm 4 mps 724 mmHg 93%
    01:00 +20°C° 1.2 mm 4 mps 724 mmHg 93%
    02:00 +20°C° 1.2 mm 4 mps 724 mmHg 92%
    03:00 +20°C° 1.1 mm 4 mps 724 mmHg 92%
    04:00 +20°C° 1.1 mm 4 mps 724 mmHg 92%
    05:00 +20°C° 1.1 mm 4 mps 724 mmHg 92%
    06:00 +20°C° 0.7 mm 4 mps 724 mmHg 92%
    07:00 +20°C° 0.7 mm 4 mps 724 mmHg 91%
    08:00 +20°C° 0.7 mm 3 mps 725 mmHg 91%
    09:00 +21°C° 0.4 mm 3 mps 725 mmHg 89%
    10:00 +22°C° 0.4 mm 3 mps 725 mmHg 87%
    11:00 +24°C° 0.4 mm 3 mps 725 mmHg 84%
    12:00 +25°C° 0.1 mm 2 mps 724 mmHg 79%
    13:00 +26°C° 0.1 mm 2 mps 723 mmHg 74%
    14:00 +27°C° 0.1 mm 2 mps 723 mmHg 69%
    15:00 +27°C° 0 mm 1 mps 722 mmHg 69%
    16:00 +27°C° 0 mm 1 mps 722 mmHg 69%
    17:00 +26°C° 0 mm 1 mps 722 mmHg 70%
    18:00 +25°C° 0 mm 1 mps 722 mmHg 75%
    19:00 +24°C° 0 mm 1 mps 722 mmHg 80%
    20:00 +21°C° 0 mm 0 mps 722 mmHg 85%
    21:00 +21°C° 0 mm 0 mps 722 mmHg 85%
    22:00 +21°C° 0 mm 0 mps 723 mmHg 85%
    23:00 +21°C° 0 mm 0 mps 723 mmHg 86%

    Tomorrow, 20 November, Tuesday

    Time Temperature Precipitation Wind Pressure Humidity
    00:00 +21°C° 0 mm 0 mps 723 mmHg 86%
    01:00 +23°C° 0 mm 1 mps 723 mmHg 87%
    02:00 +22°C° 0 mm 1 mps 722 mmHg 88%
    03:00 +22°C° 0.1 mm 1 mps 722 mmHg 87%
    04:00 +22°C° 0.1 mm 1 mps 722 mmHg 87%
    05:00 +22°C° 0.1 mm 1 mps 722 mmHg 87%
    06:00 +24°C° 0.1 mm 1 mps 723 mmHg 82%
    07:00 +23°C° 0.1 mm 0 mps 723 mmHg 78%
    08:00 +24°C° 0.1 mm 0 mps 724 mmHg 74%
    09:00 +28°C° 0 mm 1 mps 724 mmHg 68%
    10:00 +29°C° 0 mm 1 mps 724 mmHg 62%
    11:00 +31°C° 0 mm 1 mps 724 mmHg 56%
    12:00 +31°C° 0 mm 1 mps 723 mmHg 54%
    13:00 +32°C° 0 mm 1 mps 722 mmHg 51%
    14:00 +33°C° 0 mm 1 mps 721 mmHg 49%
    15:00 +33°C° 0 mm 1 mps 721 mmHg 49%
    16:00 +33°C° 0 mm 1 mps 720 mmHg 50%
    17:00 +33°C° 0 mm 1 mps 720 mmHg 50%
    18:00 +31°C° 0 mm 1 mps 720 mmHg 57%
    19:00 +29°C° 0 mm 1 mps 721 mmHg 63%
    20:00 +25°C° 0 mm 0 mps 721 mmHg 69%
    21:00 +26°C° 0.1 mm 1 mps 722 mmHg 72%
    22:00 +26°C° 0.1 mm 1 mps 722 mmHg 75%
    23:00 +25°C° 0.1 mm 1 mps 723 mmHg 78%

    Day after tomorrow, 21 November, Wednesday

    Time Temperature Precipitation Wind Pressure Humidity
    00:00 +25°C° 0.1 mm 1 mps 723 mmHg 79%
    01:00 +25°C° 0.1 mm 1 mps 722 mmHg 80%
    02:00 +25°C° 0.1 mm 1 mps 722 mmHg 82%
    03:00 +24°C° 0.1 mm 1 mps 722 mmHg 82%
    04:00 +24°C° 0.1 mm 1 mps 722 mmHg 82%
    05:00 +22°C° 0.1 mm 0 mps 722 mmHg 82%
    06:00 +24°C° 0.1 mm 0 mps 722 mmHg 75%
    07:00 +26°C° 0.1 mm 0 mps 723 mmHg 69%
    08:00 +28°C° 0.1 mm 0 mps 723 mmHg 62%
    09:00 +30°C° 0 mm 0 mps 723 mmHg 56%
    10:00 +34°C° 0 mm 1 mps 723 mmHg 49%
    11:00 +36°C° 0 mm 1 mps 723 mmHg 43%
    12:00 +36°C° 0 mm 1 mps 722 mmHg 44%
    13:00 +36°C° 0 mm 1 mps 721 mmHg 45%
    14:00 +36°C° 0 mm 2 mps 719 mmHg 46%
    15:00 +36°C° 0.1 mm 2 mps 719 mmHg 48%
    16:00 +35°C° 0.1 mm 2 mps 719 mmHg 51%
    17:00 +34°C° 0.1 mm 1 mps 718 mmHg 54%
    18:00 +32°C° 0.2 mm 1 mps 719 mmHg 59%
    19:00 +30°C° 0.2 mm 1 mps 719 mmHg 64%
    20:00 +29°C° 0.2 mm 1 mps 719 mmHg 69%
    21:00 +28°C° 0 mm 1 mps 720 mmHg 71%
    22:00 +28°C° 0 mm 1 mps 720 mmHg 72%
    23:00 +27°C° 0 mm 1 mps 720 mmHg 73%

    22 November, Thursday

    Time Temperature Precipitation Wind Pressure Humidity
    00:00 +27°C° 0 mm 1 mps 720 mmHg 76%
    01:00 +27°C° 0 mm 1 mps 719 mmHg 78%
    02:00 +26°C° 0 mm 1 mps 719 mmHg 80%
    03:00 +26°C° 0.2 mm 1 mps 719 mmHg 84%
    04:00 +25°C° 0.2 mm 1 mps 719 mmHg 87%
    05:00 +24°C° 0.2 mm 1 mps 719 mmHg 91%
    06:00 +26°C° 0.2 mm 2 mps 720 mmHg 86%
    07:00 +27°C° 0.2 mm 2 mps 720 mmHg 82%
    08:00 +28°C° 0.2 mm 2 mps 720 mmHg 78%
    09:00 +30°C° 0.1 mm 3 mps 720 mmHg 68%
    10:00 +33°C° 0.1 mm 3 mps 720 mmHg 59%
    11:00 +36°C° 0.1 mm 4 mps 719 mmHg 49%
    12:00 +36°C° 0 mm 4 mps 718 mmHg 48%
    13:00 +37°C° 0 mm 4 mps 717 mmHg 46%
    14:00 +37°C° 0 mm 5 mps 716 mmHg 44%
    15:00 +37°C° 0 mm 4 mps 716 mmHg 46%
    16:00 +36°C° 0 mm 4 mps 716 mmHg 47%
    17:00 +36°C° 0 mm 4 mps 716 mmHg 49%
    18:00 +34°C° 0 mm 3 mps 716 mmHg 55%
    19:00 +31°C° 0 mm 2 mps 717 mmHg 62%
    20:00 +30°C° 0 mm 2 mps 718 mmHg 68%
    21:00 +29°C° 0 mm 2 mps 718 mmHg 70%
    22:00 +28°C° 0 mm 2 mps 718 mmHg 72%
    23:00 +28°C° 0 mm 2 mps 718 mmHg 75%

    23 November, Friday

    Time Temperature Precipitation Wind Pressure Humidity
    00:00 +28°C° 0 mm 2 mps 718 mmHg 77%
    01:00 +27°C° 0 mm 2 mps 717 mmHg 79%
    02:00 +27°C° 0 mm 2 mps 717 mmHg 82%
    03:00 +26°C° 0.1 mm 2 mps 717 mmHg 84%
    04:00 +26°C° 0.1 mm 2 mps 717 mmHg 86%
    05:00 +26°C° 0.1 mm 3 mps 717 mmHg 88%
    06:00 +26°C° 0.1 mm 3 mps 718 mmHg 85%
    07:00 +27°C° 0.1 mm 3 mps 718 mmHg 82%
    08:00 +28°C° 0.1 mm 4 mps 719 mmHg 79%
    09:00 +29°C° 0.8 mm 4 mps 719 mmHg 76%
    10:00 +30°C° 0.8 mm 4 mps 718 mmHg 73%
    11:00 +32°C° 0.8 mm 4 mps 718 mmHg 69%
    12:00 +32°C° 1.1 mm 4 mps 718 mmHg 69%
    13:00 +31°C° 1.1 mm 3 mps 717 mmHg 69%
    14:00 +33°C° 1.1 mm 3 mps 717 mmHg 69%
    15:00 +31°C° 2.5 mm 2 mps 717 mmHg 75%
    16:00 +30°C° 2.5 mm 2 mps 717 mmHg 81%
    17:00 +29°C° 2.5 mm 1 mps 717 mmHg 87%
    18:00 +28°C° 1.8 mm 1 mps 717 mmHg 89%
    19:00 +27°C° 1.8 mm 1 mps 718 mmHg 90%
    20:00 +26°C° 1.8 mm 2 mps 719 mmHg 92%
    21:00 +25°C° 1.4 mm 2 mps 719 mmHg 93%
    22:00 +25°C° 1.4 mm 2 mps 719 mmHg 93%
    23:00 +25°C° 1.4 mm 1 mps 720 mmHg 93%

    24 November, Saturday

    Time Temperature Precipitation Wind Pressure Humidity
    00:00 +25°C° 0.4 mm 2 mps 719 mmHg 93%
    01:00 +25°C° 0.4 mm 2 mps 719 mmHg 93%
    02:00 +24°C° 0.4 mm 2 mps 719 mmHg 93%
    03:00 +24°C° 0.1 mm 1 mps 719 mmHg 93%
    04:00 +24°C° 0.1 mm 1 mps 719 mmHg 92%
    05:00 +24°C° 0.1 mm 1 mps 719 mmHg 92%
    06:00 +25°C° 0 mm 1 mps 720 mmHg 86%
    07:00 +26°C° 0 mm 1 mps 721 mmHg 81%
    08:00 +28°C° 0 mm 1 mps 721 mmHg 75%
    09:00 +29°C° 0 mm 2 mps 721 mmHg 67%
    10:00 +31°C° 0 mm 2 mps 721 mmHg 58%
    11:00 +34°C° 0 mm 3 mps 721 mmHg 50%
    12:00 +34°C° 0.1 mm 2 mps 720 mmHg 51%
    13:00 +34°C° 0.1 mm 2 mps 719 mmHg 52%
    14:00 +34°C° 0.1 mm 2 mps 719 mmHg 53%
    15:00 +32°C° 0.1 mm 2 mps 719 mmHg 58%
    16:00 +31°C° 0.1 mm 2 mps 718 mmHg 64%
    17:00 +30°C° 0.1 mm 2 mps 718 mmHg 69%
    18:00 +29°C° 0.1 mm 2 mps 719 mmHg 74%
    19:00 +27°C° 0.1 mm 2 mps 720 mmHg 79%
    20:00 +26°C° 0.1 mm 2 mps 720 mmHg 84%
    21:00 +26°C° 0 mm 2 mps 721 mmHg 85%
    22:00 +26°C° 0 mm 1 mps 721 mmHg 86%
    23:00 +25°C° 0 mm 1 mps 721 mmHg 87%
    Show more